CW2798 Aduanas ES current weather conditions

sailwx.info

Wind from 215 at 5 knots gusting 8

Air temperature 30.0° C
Dewpoint 24.8° C

Last reported at 2015-Jul-29 16:30 UTC.
Time now 2015-Jul-29 17:59 UTC

Location: N 38°48' E 000°11'.
View on Google Maps.

See reports from other nearby stations

  
Tides and Currents Weather Stations Pressure Air Temp Water Temp Dewpoint Dewpoint Depression Visibility Wind Speed Wind Dir Waves Ship Positions
date/time (UTC)wind fromknots sea level pressurealtimeterstation pressurevisibilityair tempwater tempwave heightnotes
2015-Jul-29 16:30 215 5 gusting 8 30.0
2015-Jul-29 16:15 173 6 gusting 8 29.4
2015-Jul-29 16:00 168 8 gusting 15 29.4
2015-Jul-29 15:45 174 7 gusting 13 30.0
2015-Jul-29 15:30 173 6 gusting 11 29.4
2015-Jul-29 15:00 160 7 gusting 14 29.4
2015-Jul-29 14:30 163 7 gusting 10 30.0
2015-Jul-29 13:45 163 6 gusting 10 30.0
2015-Jul-29 13:15 165 6 gusting 9 29.4
2015-Jul-29 13:00 158 6 gusting 10 29.4
2015-Jul-29 12:30 133 5 gusting 10 28.9
2015-Jul-29 12:15 135 4 gusting 11 29.4
2015-Jul-29 11:45 154 5 gusting 10 28.9
2015-Jul-29 11:30 142 3 gusting 8 28.9
2015-Jul-29 11:15 133 3 gusting 10 29.4
2015-Jul-29 11:00 127 3 gusting 6 29.4
2015-Jul-29 10:30 146 5 gusting 9 29.4
2015-Jul-29 10:00 148 4 gusting 9 28.9
2015-Jul-29 09:30 126 0 gusting 5 28.9
2015-Jul-29 09:15 141 0 gusting 4 28.9
2015-Jul-29 09:00 122 0 gusting 6 28.3
2015-Jul-29 08:45 117 0 gusting 3 28.3
2015-Jul-29 08:30 130 28.9
2015-Jul-29 07:45 28.3
2015-Jul-29 07:30 27.8
2015-Jul-29 07:15 27.8
2015-Jul-29 07:00 27.2
2015-Jul-29 06:45 26.7
2015-Jul-29 06:30 26.7
2015-Jul-29 06:00 25.6
2015-Jul-29 05:45 25.6
2015-Jul-29 05:30 25.6
2015-Jul-29 05:00 26.7
2015-Jul-29 04:45 26.7
2015-Jul-29 04:15 26.7
2015-Jul-29 04:00 26.7
2015-Jul-29 03:45 26.7
2015-Jul-29 03:15 26.7
2015-Jul-29 03:00 26.7
2015-Jul-29 02:45 26.7
2015-Jul-29 01:30 26.7
2015-Jul-29 00:30 258 26.7
2015-Jul-29 00:15 26.7
2015-Jul-29 00:00 269 26.7
2015-Jul-28 23:45 26.7
2015-Jul-28 23:30 27.2
2015-Jul-28 23:15 27.2
2015-Jul-28 23:00 260 27.2
2015-Jul-28 22:15 216 0 gusting 3 27.2
2015-Jul-28 22:00 261 1 gusting 3 27.2
2015-Jul-28 21:30 244 2 gusting 6 27.2
2015-Jul-28 21:00 249 4 gusting 9 27.8
2015-Jul-28 20:45 232 4 gusting 6 27.8
2015-Jul-28 20:30 235 4 gusting 7 27.8
2015-Jul-28 20:15 227 5 gusting 13 27.8
2015-Jul-28 20:00 224 6 gusting 11 27.8
2015-Jul-28 19:45 219 6 gusting 13 27.8
2015-Jul-28 19:30 228 6 gusting 9 27.8
2015-Jul-28 18:30 220 7 gusting 13 28.3
2015-Jul-28 18:00 188 6 gusting 13 28.3
2015-Jul-28 17:30 206 6 gusting 11 28.9
2015-Jul-28 17:15 182 5 gusting 13 28.9
2015-Jul-28 17:00 177 5 gusting 8 28.9
2015-Jul-28 16:30 177 5 gusting 10 29.4
2015-Jul-28 16:15 160 6 gusting 8 29.4
2015-Jul-28 15:45 158 6 gusting 9 29.4
2015-Jul-28 15:30 164 5 gusting 8 28.9
2015-Jul-28 15:15 138 3 gusting 9 28.9
2015-Jul-28 14:45 133 4 gusting 8 28.9
2015-Jul-28 14:30 120 3 gusting 10 28.9
2015-Jul-28 14:15 127 4 gusting 11 29.4
2015-Jul-28 13:45 127 1 gusting 7 30.0
2015-Jul-28 13:30 129 0 gusting 7 30.6
2015-Jul-28 13:00 130 2 gusting 6 30.0
2015-Jul-28 12:30 074 30.0
2015-Jul-28 12:15 132 0 gusting 4 29.4
2015-Jul-28 12:00 29.4
2015-Jul-28 11:15 28.9
2015-Jul-28 09:30 094 0 gusting 3 29.4
2015-Jul-28 09:00 079 0 gusting 4 29.4
2015-Jul-28 07:15 28.3
2015-Jul-28 07:00 012 0 gusting 4 27.8
2015-Jul-28 06:45 350 1 gusting 5 27.8
2015-Jul-28 06:30 349 27.8
2015-Jul-28 06:15 339 0 gusting 5 27.2
2015-Jul-28 05:45 27.2
2015-Jul-28 05:00 27.2
2015-Jul-28 04:15 014 26.7
2015-Jul-28 04:00 26.7
2015-Jul-28 03:45 351 0 gusting 6 26.7
2015-Jul-28 03:30 313 0 gusting 5 26.7
2015-Jul-28 03:15 350 0 gusting 7 26.7
2015-Jul-28 02:45 004 2 gusting 7 26.7
2015-Jul-28 02:15 004 1 gusting 6 27.2
2015-Jul-28 01:45 358 1 gusting 6 27.2
2015-Jul-28 01:30 343 1 gusting 5 27.2
2015-Jul-28 01:15 27.2
2015-Jul-28 01:00 312 0 gusting 3 27.2
2015-Jul-28 00:45 303 0 gusting 6 27.8
2015-Jul-28 00:15 244 0 gusting 1 27.8
2015-Jul-28 00:00 27.8
2015-Jul-27 23:15 27.8
2015-Jul-27 23:00 27.8
2015-Jul-27 22:45 274 3 gusting 6 27.8
2015-Jul-27 22:30 328 0 gusting 8 27.8
2015-Jul-27 22:15 329 1 gusting 8 27.8
2015-Jul-27 22:00 322 0 gusting 5 27.8
2015-Jul-27 21:45 318 3 gusting 4 27.8
2015-Jul-27 21:30 316 3 gusting 8 27.8
2015-Jul-27 21:15 324 0 gusting 6 28.3
2015-Jul-27 21:00 28.3
2015-Jul-27 20:15 325 2 gusting 6 28.3
2015-Jul-27 20:00 28.9
2015-Jul-27 19:45 28.9
2015-Jul-27 19:30 270 2 gusting 6 28.9
2015-Jul-27 19:15 244 2 gusting 6 29.4
2015-Jul-27 19:00 265 4 gusting 7 30.0
2015-Jul-27 18:45 270 5 gusting 6 30.6
2015-Jul-27 18:15 247 5 gusting 7 31.7
2015-Jul-27 18:00 247 5 gusting 9 32.2
2015-Jul-27 17:45 250 2 gusting 9 32.8
2015-Jul-27 17:30 163 2 gusting 6 32.2
2015-Jul-27 17:15 159 3 gusting 5 32.2